Bei Facebook empfehlenBei Twitter postenGoogle plusPinterest

Das Wetter im Erzgebirge am 15.12.2016

Wetter und Klima am 15.12.2016 Holzhau im Erzgebirge (630m ü.NN)
Letzte gemessene Temperatur und Uhrzeit der Messung23:45:00 Uhr-2.90 °C
Temperatur (Maximum / Höchstwert) und Uhrzeit der Messung00:00:00 Uhr0.90 °C
Temperatur (Minimum / Tiefstwert) und Uhrzeit der Messung08:45:00-4.20 °C
Errechneter Absolutwert der Temperaturschwankungen zwischen Tmin und Tmax des Tages5.10 K
Errechnete Tagesmitteltemperatur-1.72917 °C
Gesamt - Niederschlag des Tages (in flüssiger Form)0.00 Liter / m²
Luftdruck (Maximum / Höchstwert) und Zeitpunkt der Messung09:30:00 Uhr1025.50 hPa
Luftdruck (Minimum / Tiefstwert) und Zeitpunkt der Messung00:00:00 Uhr1023.20 hPa
Errechneter Absolutwert der Luftdruckschwankungen des Tages2.30 hPa
Höchste gemessene Windgeschwindigkeit und Uhrzeit der Messung23:45:00 Uhr0.00 km/h
Errechnete Windhäufigkeit in Relation zu den Messwerten des Tages0.00000 %
Niedrigste Windkühle (Windchill) und Zeitpunkt der Messung08:45:00 Uhr-4.20 °C
Taupunkt (Maximum / Höchstwert) und Uhrzeit der Messung00:00:00 Uhr0.60 °C
Taupunkt (Minimum / Tiefstwert) und Uhrzeit der Messung08:45:00-4.70 °C
Anzahl der automatisch eingelesenen Messwerte 96

Detaillierte Wetter- und Klima- Messwerte für den 15.12.2016 in Holzhau im Erzgebirge (630m ü.NN)
ZeitTemperaturLuftdruckRel. LuftfeuchteWindWindrichtungWindchillTaupunktNiederschlag l/m²
23:45:00-2.90 °C1023.80 hPa96.00 %-3.50 °C 
23:30:00-2.90 °C1023.80 hPa96.00 %-3.50 °C 
23:15:00-2.80 °C1023.90 hPa96.00 %-3.40 °C 
23:00:00-2.70 °C1023.90 hPa96.00 %-3.30 °C 
22:45:00-2.70 °C1024.10 hPa96.00 %-3.30 °C 
22:30:00-2.70 °C1024.10 hPa96.00 %-3.30 °C 
22:15:00-2.70 °C1024.10 hPa96.00 %-3.30 °C 
22:00:00-2.70 °C1024.00 hPa96.00 %-3.30 °C 
21:45:00-2.70 °C1024.10 hPa96.00 %-3.30 °C 
21:30:00-2.70 °C1024.20 hPa96.00 %-3.30 °C 
21:15:00-2.70 °C1024.20 hPa96.00 %-3.30 °C 
21:00:00-2.70 °C1024.20 hPa96.00 %-3.30 °C 
20:45:00-2.70 °C1024.20 hPa97.00 %-3.20 °C 
20:30:00-2.70 °C1024.20 hPa97.00 %-3.20 °C 
20:15:00-2.70 °C1023.90 hPa97.00 %-3.20 °C 
20:00:00-2.80 °C1023.90 hPa96.00 %-3.40 °C 
19:45:00-2.80 °C1024.20 hPa96.00 %-3.40 °C 
19:30:00-2.80 °C1024.20 hPa96.00 %-3.40 °C 
19:15:00-2.90 °C1024.10 hPa96.00 %-3.50 °C 
19:00:00-2.90 °C1024.20 hPa96.00 %-3.50 °C 
18:45:00-2.90 °C1024.30 hPa96.00 %-3.50 °C 
18:30:00-2.80 °C1024.20 hPa96.00 %-3.40 °C 
18:15:00-2.80 °C1024.20 hPa96.00 %-3.40 °C 
18:00:00-2.70 °C1024.40 hPa97.00 %-3.20 °C 
17:45:00-2.60 °C1024.30 hPa97.00 %-3.10 °C 
17:30:00-2.60 °C1024.30 hPa97.00 %-3.10 °C 
17:15:00-2.50 °C1024.30 hPa97.00 %-3.00 °C 
17:00:00-2.50 °C1024.40 hPa97.00 %-3.00 °C 
16:45:00-2.40 °C1024.30 hPa97.00 %-2.90 °C 
16:30:00-2.40 °C1024.30 hPa97.00 %-2.90 °C 
16:15:00-2.20 °C1024.20 hPa97.00 %-2.70 °C 
16:00:00-2.10 °C1024.20 hPa97.00 %-2.60 °C 
15:45:00-2.10 °C1024.10 hPa97.00 %-2.60 °C 
15:30:00-1.80 °C1024.10 hPa97.00 %-2.30 °C 
15:15:00-1.60 °C1024.40 hPa97.00 %-2.10 °C 
15:00:00-1.30 °C1024.40 hPa97.00 %-1.80 °C 
14:45:00-1.00 °C1024.30 hPa97.00 %-1.50 °C 
14:30:00-0.60 °C1024.20 hPa97.00 %-1.10 °C 
14:15:00-0.20 °C1024.10 hPa97.00 %-0.70 °C 
14:00:000.10 °C1024.30 hPa97.00 %-0.30 °C 
13:45:000.30 °C1024.20 hPa97.00 %-0.10 °C 
13:30:000.30 °C1024.20 hPa97.00 %-0.10 °C 
13:15:000.40 °C1024.40 hPa97.00 %0.00 °C 
13:00:000.30 °C1024.50 hPa97.00 %-0.10 °C 
12:45:000.20 °C1024.60 hPa97.00 %-0.20 °C 
12:30:000.30 °C1024.70 hPa97.00 %-0.10 °C 
12:15:00-0.10 °C1024.90 hPa97.00 %-0.60 °C 
12:00:00-0.40 °C1024.90 hPa97.00 %-0.90 °C 
11:45:00-0.70 °C1025.00 hPa97.00 %-1.20 °C 
11:30:00-0.80 °C1025.30 hPa97.00 %-1.30 °C 
11:15:00-1.10 °C1025.30 hPa97.00 %-1.60 °C 
11:00:00-1.50 °C1025.40 hPa97.00 %-2.00 °C 
10:45:00-1.90 °C1025.20 hPa97.00 %-2.40 °C 
10:30:00-2.20 °C1025.20 hPa97.00 %-2.70 °C 
10:15:00-2.50 °C1025.30 hPa97.00 %-3.00 °C 
10:00:00-2.90 °C1025.40 hPa97.00 %-3.40 °C 
09:45:00-3.40 °C1025.40 hPa97.00 %-3.90 °C 
09:30:00-3.60 °C1025.50 hPa97.00 %-4.10 °C 
09:15:00-3.60 °C1025.30 hPa97.00 %-4.10 °C 
09:00:00-3.80 °C1025.20 hPa97.00 %-4.30 °C 
08:45:00-4.20 °C1025.00 hPa97.00 %-4.70 °C 
08:30:00-4.10 °C1024.70 hPa97.00 %-4.60 °C 
08:15:00-3.90 °C1024.70 hPa97.00 %-4.40 °C 
08:00:00-3.90 °C1024.50 hPa97.00 %-4.40 °C 
07:45:00-3.80 °C1024.30 hPa97.00 %-4.30 °C 
07:30:00-3.60 °C1024.30 hPa97.00 %-4.10 °C 
07:15:00-3.20 °C1024.30 hPa97.00 %-3.70 °C 
07:00:00-2.90 °C1024.10 hPa97.00 %-3.40 °C 
06:45:00-2.60 °C1024.10 hPa97.00 %-3.10 °C 
06:30:00-2.40 °C1024.00 hPa97.00 %-2.90 °C 
06:15:00-2.10 °C1023.90 hPa97.00 %-2.60 °C 
06:00:00-1.80 °C1023.90 hPa97.00 %-2.30 °C 
05:45:00-1.40 °C1023.70 hPa97.00 %-1.90 °C 
05:30:00-1.10 °C1024.00 hPa97.00 %-1.60 °C 
05:15:00-1.20 °C1023.80 hPa97.00 %-1.70 °C 
05:00:00-1.10 °C1023.70 hPa97.00 %-1.60 °C 
04:45:00-1.10 °C1023.90 hPa97.00 %-1.60 °C 
04:30:00-0.80 °C1023.90 hPa97.00 %-1.30 °C 
04:15:00-0.80 °C1023.80 hPa97.00 %-1.30 °C 
04:00:00-0.70 °C1023.70 hPa97.00 %-1.20 °C 
03:45:00-0.70 °C1023.60 hPa97.00 %-1.20 °C 
03:30:00-0.70 °C1023.40 hPa97.00 %-1.20 °C 
03:15:00-0.60 °C1023.50 hPa97.00 %-1.10 °C 
03:00:00-0.50 °C1023.30 hPa97.00 %-1.00 °C 
02:45:00-0.40 °C1023.50 hPa97.00 %-0.90 °C 
02:30:00-0.20 °C1023.60 hPa97.00 %-0.70 °C 
02:15:00-0.10 °C1023.60 hPa97.00 %-0.60 °C 
02:00:000.20 °C1023.80 hPa97.00 %-0.20 °C 
01:45:000.30 °C1023.50 hPa97.00 %-0.10 °C 
01:30:000.40 °C1023.50 hPa97.00 %0.00 °C 
01:15:000.40 °C1023.50 hPa97.00 %0.00 °C 
01:00:000.50 °C1023.80 hPa97.00 %0.10 °C 
00:45:000.60 °C1023.90 hPa98.00 %0.30 °C 
00:30:000.70 °C1023.40 hPa98.00 %0.40 °C 
00:15:000.80 °C1023.30 hPa98.00 %0.50 °C 
00:00:000.90 °C1023.20 hPa98.00 %0.60 °C 

Permanenter Link zu dieser Seite: Wetter im Erzgebirge am 15.12.2016
Performance-Info: Die Erstellung der Seite / Statistik(en) / Tabelle(n) erforderte 5 Datenbankserver-Abfrage(n) und dauerte 98 Millisekunden. (Dieser Messwert ist von der Gesamt-Auslastung des Servers abhängig.)
Erzgebirge - Wetter | Erzgebirge - Wetter (Mobilgeräte) | Komplette Klimadatenbank